Lorentz, WV

9:18 AM EST on February 12, 2016 (GMT -0500)
Buckhannon

Weather History for KW22 - March, 2012

Change the Weather History Date:

Monday, March 5, 2012

  Actual Average (KEKN) Record (KEKN)
Temperature  
Mean Temperature 30 °F 36 °F  
Max Temperature 33 °F 48 °F 78 °F (2004)
Min Temperature 28 °F 25 °F 0 °F (1975)
Degree Days  
Heating Degree Days 34 29  
Month to date heating degree days 146  
Since 1 July heating degree days 4467  
Cooling Degree Days 0 0  
Month to date cooling degree days 0  
Year to date cooling degree days 0  
Moisture  
Dew Point 26 °F    
Average Humidity 86    
Maximum Humidity 100    
Minimum Humidity 60    
Precipitation  
Precipitation 3.22 in 0.12 in 1.44 in (2015)
Month to date precipitation 0.59  
Year to date precipitation 6.92  
Snow  
Snow 0.00 in - - ()
Month to date snowfall  
Since 1 September snowfall  
Snow Depth -    
Sea Level Pressure  
Sea Level Pressure 30.09 in    
Wind  
Wind Speed 4 mph (WNW)    
Max Wind Speed 20 mph    
Max Gust Speed 30 mph    
Visibility 7 miles    
Events Rain , Snow    
T = Trace of Precipitation, MM = Missing Value Source: NWS Daily Summary

Daily Weather History Graph

Daily Weather History Graph

Search for Another Location

Airport or City:

Trip Planner

Search our weather history database for the weather conditions in past years. The results will help you decide how hot, cold, wet, or windy it might be!

Date:

Astronomy

Mar. 05, 2012 Rise Set
Actual Time 6:46 AM EST 6:18 PM EST
Civil Twilight 6:20 AM EST 6:45 PM EST
Nautical Twilight 5:49 AM EST 7:16 PM EST
Astronomical Twilight 5:18 AM EST 7:47 PM EST
Moon 3:36 PM EST (3/5) 4:44 AM EST (3/5)
Length of Visible Light 12h 24m
Length of Day
11h 31m
Waxing Gibbous, 91% of the Moon is Illuminated
Mar 5
Waxing Gibbous
Mar 8
Full
Mar 14
Last Quarter
Mar 22
New
Mar 30
First Quarter

Hourly Weather History & Observations

Time (EST) Temp. Windchill Dew Point Humidity Pressure Visibility Wind Dir Wind Speed Gust Speed Precip Events Conditions
12:15 AM 28.4 °F - 28.4 °F 100% 29.89 in 10.0 mi Calm Calm - N/A   Clear
12:35 AM 28.4 °F - 28.4 °F 100% 29.89 in 10.0 mi Calm Calm - N/A   Clear
12:55 AM 28.4 °F - 28.4 °F 100% 29.88 in 10.0 mi Calm Calm - N/A   Partly Cloudy
1:15 AM 28.4 °F 23.3 °F 28.4 °F 100% 29.88 in 10.0 mi SSW 4.6 mph - N/A   Partly Cloudy
1:35 AM 28.4 °F 23.3 °F 28.4 °F 100% 29.88 in 10.0 mi SSW 4.6 mph - N/A   Partly Cloudy
1:55 AM 28.4 °F - 28.4 °F 100% 29.87 in 10.0 mi Calm Calm - N/A   Partly Cloudy
2:15 AM 28.4 °F - 26.6 °F 93% 29.87 in 10.0 mi Calm Calm - N/A   Mostly Cloudy
2:35 AM 28.4 °F - 26.6 °F 93% 29.86 in 10.0 mi Calm Calm - N/A   Mostly Cloudy
2:55 AM 28.4 °F - 26.6 °F 93% 29.86 in 10.0 mi Calm Calm - N/A   Scattered Clouds
3:15 AM 30.2 °F - 26.6 °F 86% 29.86 in 10.0 mi Calm Calm - N/A   Mostly Cloudy
3:35 AM 28.4 °F - 28.4 °F 100% 29.85 in 10.0 mi Calm Calm - N/A   Mostly Cloudy
3:55 AM 28.4 °F - 28.4 °F 100% 29.85 in 10.0 mi Calm Calm - N/A   Mostly Cloudy
4:15 AM 28.4 °F - 28.4 °F 100% 29.85 in 4.0 mi Calm Calm - N/A   Scattered Clouds
4:35 AM 28.4 °F - 28.4 °F 100% 29.85 in 5.0 mi Calm Calm - N/A   Scattered Clouds
4:55 AM 28.4 °F - 28.4 °F 100% 29.85 in 5.0 mi Calm Calm - N/A   Scattered Clouds
5:15 AM 28.4 °F - 28.4 °F 100% 29.86 in 3.0 mi Calm Calm - N/A Snow Light Snow
5:35 AM 28.4 °F 23.3 °F 28.4 °F 100% 29.86 in 1.8 mi NNE 4.6 mph - 0.04 in Snow Light Snow
5:55 AM 28.4 °F 22.2 °F 28.4 °F 100% 29.87 in 1.5 mi North 5.8 mph - 0.13 in Snow Light Snow
6:15 AM 28.4 °F - 28.4 °F 100% 29.88 in 1.8 mi Calm Calm - 0.08 in Snow Light Snow
6:35 AM 28.4 °F 20.4 °F 28.4 °F 100% 29.89 in 1.5 mi North 8.1 mph - 0.23 in Snow Light Snow
6:55 AM 28.4 °F 21.2 °F 28.4 °F 100% 29.91 in 1.0 mi North 6.9 mph - 0.33 in Snow Light Snow
7:15 AM 28.4 °F 19.7 °F 28.4 °F 100% 29.93 in 1.2 mi North 9.2 mph - 0.06 in Snow Light Snow
7:35 AM 28.4 °F 23.3 °F 28.4 °F 100% 29.95 in 2.5 mi NNW 4.6 mph - 0.08 in   Mostly Cloudy
7:55 AM 28.4 °F 23.3 °F 28.4 °F 100% 29.96 in 7.0 mi NNW 4.6 mph - 0.09 in   Clear
8:15 AM 28.4 °F - 26.6 °F 93% 29.98 in 10.0 mi Calm Calm - N/A   Clear
8:35 AM 28.4 °F - 24.8 °F 86% 30.00 in 10.0 mi Calm Calm - N/A   Clear
8:55 AM 30.2 °F 25.4 °F 23.0 °F 75% 30.02 in 10.0 mi NW 4.6 mph - N/A   Clear
9:15 AM 30.2 °F 22.6 °F 23.0 °F 75% 30.03 in 10.0 mi NW 8.1 mph - N/A   Clear
9:35 AM 30.2 °F 20.2 °F 23.0 °F 75% 30.05 in 10.0 mi NNW 12.7 mph 20.7 mph N/A   Partly Cloudy
9:55 AM 30.2 °F 21.9 °F 23.0 °F 75% 30.06 in 10.0 mi NW 9.2 mph - N/A   Partly Cloudy
10:15 AM 32.0 °F 25.6 °F 23.0 °F 69% 30.08 in 10.0 mi NNW 6.9 mph - N/A   Partly Cloudy
10:35 AM 32.0 °F 26.4 °F 23.0 °F 69% 30.09 in 10.0 mi NW 5.8 mph - N/A   Mostly Cloudy
10:55 AM 32.0 °F 23.6 °F 23.0 °F 69% 30.10 in 5.0 mi West 10.4 mph 16.1 mph N/A   Mostly Cloudy
11:15 AM 32.0 °F 21.6 °F 23.0 °F 69% 30.12 in 9.0 mi West 15.0 mph 18.4 mph N/A Rain Light Rain
11:35 AM 32.0 °F 23.0 °F 26.6 °F 80% 30.13 in 10.0 mi West 11.5 mph 21.9 mph N/A   Scattered Clouds
11:55 AM 33.8 °F 25.3 °F 26.6 °F 75% 30.13 in 10.0 mi West 11.5 mph 16.1 mph N/A   Mostly Cloudy
12:15 PM 30.2 °F 22.6 °F 28.4 °F 93% 30.14 in 0.8 mi West 8.1 mph - 0.19 in Rain Light Freezing Rain
12:35 PM 32.0 °F 20.5 °F 26.6 °F 80% 30.16 in 4.0 mi West 18.4 mph 23.0 mph 0.20 in Snow Light Snow
12:55 PM 32.0 °F 23.6 °F 28.4 °F 87% 30.16 in 3.0 mi WNW 10.4 mph - 0.49 in   Scattered Clouds
1:15 PM 32.0 °F 24.2 °F 28.4 °F 87% 30.16 in 5.0 mi West 9.2 mph 16.1 mph N/A Snow Light Snow
1:35 PM 30.2 °F 18.5 °F 28.4 °F 93% 30.17 in 0.5 mi WNW 17.3 mph 24.2 mph 0.19 in Snow Snow
1:55 PM 32.0 °F 22.5 °F 30.2 °F 93% 30.18 in 10.0 mi West 12.7 mph 16.1 mph 0.42 in   Mostly Cloudy
2:15 PM 28.4 °F 15.4 °F 28.4 °F 100% 30.19 in 0.2 mi NNW 19.6 mph 29.9 mph 0.52 in Snow Heavy Snow
2:55 PM 32.0 °F 23.6 °F 28.4 °F 87% 30.22 in 10.0 mi NW 10.4 mph 18.4 mph 0.97 in Rain Light Rain
3:15 PM 30.2 °F 22.6 °F 28.4 °F 93% 30.23 in 1.8 mi NW 8.1 mph - 0.02 in Snow Light Snow
3:35 PM 30.2 °F 22.6 °F 28.4 °F 93% 30.25 in 1.0 mi NNW 8.1 mph 16.1 mph 0.09 in Snow Light Snow
4:15 PM 32.0 °F 24.2 °F 24.8 °F 75% 30.26 in 10.0 mi West 9.2 mph 16.1 mph N/A   Scattered Clouds
4:35 PM 32.0 °F 24.8 °F 24.8 °F 75% 30.28 in 2.5 mi West 8.1 mph 19.6 mph 0.02 in Snow Light Snow
4:55 PM 30.2 °F 22.6 °F 28.4 °F 93% 30.29 in 10.0 mi West 8.1 mph - 0.02 in   Mostly Cloudy
5:15 PM 28.4 °F 21.2 °F 28.4 °F 100% 30.31 in 0.2 mi NW 6.9 mph 20.7 mph 0.65 in Snow Heavy Snow
5:35 PM 28.4 °F 24.6 °F 26.6 °F 93% 30.32 in 10.0 mi WNW 3.5 mph - 0.68 in   Mostly Cloudy
6:15 PM 30.2 °F 21.3 °F 23.0 °F 75% 30.35 in 10.0 mi WNW 10.4 mph 20.7 mph N/A   Mostly Cloudy
6:35 PM 30.2 °F 23.4 °F 23.0 °F 75% 30.36 in 10.0 mi WNW 6.9 mph - N/A   Mostly Cloudy
6:55 PM 30.2 °F 22.6 °F 21.2 °F 69% 30.37 in 10.0 mi West 8.1 mph - N/A   Scattered Clouds
7:15 PM 30.2 °F 22.6 °F 21.2 °F 69% 30.38 in 10.0 mi West 8.1 mph - N/A   Mostly Cloudy
7:35 PM 30.2 °F 20.8 °F 19.4 °F 64% 30.39 in 10.0 mi WNW 11.5 mph - N/A   Mostly Cloudy
7:55 PM 30.2 °F 21.3 °F 17.6 °F 60% 30.40 in 10.0 mi West 10.4 mph 23.0 mph N/A   Scattered Clouds
8:15 PM 30.2 °F 21.9 °F 17.6 °F 60% 30.41 in 10.0 mi West 9.2 mph 16.1 mph N/A   Partly Cloudy
8:35 PM 28.4 °F 21.2 °F 17.6 °F 64% 30.42 in 10.0 mi West 6.9 mph - N/A   Partly Cloudy
8:55 PM 28.4 °F 19.1 °F 17.6 °F 64% 30.43 in 10.0 mi West 10.4 mph - N/A   Partly Cloudy
9:15 PM 28.4 °F 22.2 °F 17.6 °F 64% 30.44 in 10.0 mi West 5.8 mph - N/A   Mostly Cloudy
9:35 PM 28.4 °F - 17.6 °F 64% 30.44 in 10.0 mi Calm Calm - N/A   Partly Cloudy
9:55 PM 28.4 °F - 17.6 °F 64% 30.45 in 10.0 mi Calm Calm - N/A   Clear
10:15 PM 28.4 °F - 17.6 °F 64% 30.45 in 10.0 mi Calm Calm - N/A   Clear
10:35 PM 28.4 °F - 17.6 °F 64% 30.46 in 10.0 mi Calm Calm - N/A   Clear
10:55 PM 26.6 °F - 17.6 °F 69% 30.45 in 10.0 mi Calm Calm - N/A   Clear
11:15 PM 26.6 °F - 17.6 °F 69% 30.45 in 10.0 mi Calm Calm - N/A   Clear
11:35 PM 26.6 °F - 17.6 °F 69% 30.45 in 10.0 mi Calm Calm - N/A   Clear
11:55 PM 26.6 °F - 19.4 °F 74% 30.45 in 10.0 mi Calm Calm - N/A   Clear